Gold Coast Seaway Observation History
Time Wind Speed Temp Pressure Rel. Hum Rain
20/10:30am SE 21-25 kts 24.8°c 1022.7 hPa 88% 2.4mm
20/10:00am SE 21-24 kts 24.3°c 1023.1 hPa 95% 2.4mm
20/09:42am SE 17-28 kts 23.6°c 1023.0 hPa 95% 1.8mm
20/09:30am SE 19-21 kts 24.0°c 1022.9 hPa 97% 1.6mm
20/09:05am SE 17-30 kts 23.1°c 1023.3 hPa 92% 0.6mm
20/09:00am SE 16-20 kts 24.8°c 1023.0 hPa 88% 9.4mm
20/08:30am SE 21-25 kts 24.0°c 1022.9 hPa 88% 9.4mm
20/08:00am SE 22-26 kts 23.6°c 1022.8 hPa 91% 9.4mm
20/07:30am ESE 22-27 kts 22.8°c 1022.5 hPa 93% 9.4mm
20/07:00am SE 22-27 kts 23.1°c 1022.2 hPa 93% 9.4mm
20/06:30am SE 17-21 kts 22.4°c 1021.8 hPa 97% 9.4mm
20/06:00am SE 19-22 kts 23.4°c 1021.5 hPa 88% 9.2mm
20/05:30am SE 19-23 kts 23.1°c 1021.3 hPa 90% 9.2mm
20/05:00am SE 21-24 kts 23.1°c 1021.1 hPa 90% 9.2mm
20/04:30am SE 18-22 kts 22.8°c 1021.1 hPa 94% 9.2mm
20/04:00am SE 20-24 kts 23.4°c 1021.0 hPa 89% 9.2mm
20/03:30am SE 19-23 kts 23.3°c 1021.0 hPa 87% 9.2mm
20/03:00am SE 18-21 kts 23.3°c 1021.0 hPa 88% 9.2mm
20/02:30am SE 20-23 kts 23.4°c 1021.1 hPa 87% 9.2mm
20/02:00am ESE 20-23 kts 23.5°c 1021.2 hPa 88% 9.2mm
20/01:30am ESE 19-22 kts 23.4°c 1021.5 hPa 85% 9.2mm
20/01:00am ESE 19-22 kts 23.4°c 1021.9 hPa 89% 9.2mm
20/12:30am ESE 18-21 kts 23.4°c 1022.1 hPa 88% 9.2mm
20/12:00am ESE 20-23 kts 23.5°c 1022.2 hPa 88% 9.2mm
Time Wind Speed Temp Pressure Rel. Hum Rain
19/11:30pm ESE 20-23 kts 23.6°c 1022.5 hPa 90% 9.2mm
19/11:00pm ESE 20-23 kts 23.4°c 1022.7 hPa 90% 9.2mm
19/10:30pm ESE 21-28 kts 22.5°c 1022.7 hPa 95% 9.2mm
19/10:00pm ESE 21-26 kts 23.6°c 1022.8 hPa 88% 9.0mm
19/09:30pm ESE 20-26 kts 23.6°c 1022.9 hPa 93% 9.0mm
19/09:00pm ESE 20-26 kts 23.5°c 1022.7 hPa 88% 9.0mm
19/08:30pm ESE 20-23 kts 23.5°c 1022.8 hPa 89% 9.0mm
19/08:00pm ESE 21-25 kts 23.6°c 1022.5 hPa 92% 9.0mm
19/07:30pm ESE 21-26 kts 23.6°c 1022.2 hPa 95% 9.0mm
19/07:00pm ESE 21-25 kts 23.5°c 1022.0 hPa 94% 9.0mm
19/06:30pm SE 19-22 kts 23.5°c 1021.9 hPa 95% 9.0mm
19/06:00pm ESE 20-23 kts 23.1°c 1021.7 hPa 95% 9.0mm
19/05:30pm ESE 21-25 kts 23.5°c 1021.5 hPa 92% 9.0mm
19/05:00pm SE 21-26 kts 23.4°c 1021.2 hPa 92% 9.0mm
19/04:30pm SE 21-25 kts 23.6°c 1021.0 hPa 92% 9.0mm
19/04:00pm SE 22-26 kts 23.4°c 1021.0 hPa 91% 9.0mm
19/03:30pm SE 20-24 kts 24.1°c 1020.8 hPa 91% 9.0mm
19/03:00pm SE 21-27 kts 23.3°c 1020.9 hPa 97% 9.0mm
19/02:30pm SE 21-35 kts 22.4°c 1021.0 hPa 99% 8.6mm
19/02:00pm SE 20-32 kts 22.4°c 1021.0 hPa 99% 6.4mm
19/01:52pm SE 21-32 kts 22.6°c 1021.2 hPa 94% 3.8mm
19/01:30pm SE 20-24 kts 24.1°c 1021.2 hPa 91% 2.6mm
19/01:00pm SE 20-25 kts 24.5°c 1021.2 hPa 89% 2.6mm
19/12:30pm SSE 18-25 kts 24.2°c 1021.9 hPa 96% 2.6mm
19/12:19pm SSE 19-29 kts 23.4°c 1022.0 hPa 93% 2.6mm
19/12:00pm SE 19-23 kts 24.6°c 1022.2 hPa 92% 2.6mm
19/11:39am SSE 22-31 kts 22.6°c 1022.6 hPa 99% 2.6mm
19/11:30am SSE 12-20 kts 22.3°c 1022.9 hPa 98% 2.4mm
19/11:00am SSE 17-20 kts 24.6°c 1023.2 hPa 87% 0.2mm
19/10:30am SSE 17-22 kts 24.3°c 1023.5 hPa 90% 0.2mm
19/10:00am SSE 18-22 kts 23.0°c 1023.7 hPa 93% 0.2mm
19/09:30am SSE 19-23 kts 23.1°c 1023.8 hPa 96% 0.2mm
19/09:00am SSE 18-22 kts 22.7°c 1024.0 hPa 98% 9.8mm
19/08:30am SSE 19-23 kts 21.7°c 1024.0 hPa 99% 9.8mm
19/08:00am S 11-17 kts 20.7°c 1023.5 hPa 99% 9.2mm
19/07:30am S 13-22 kts 20.7°c 1023.2 hPa 99% 8.6mm
19/07:00am S 9-14 kts 20.3°c 1023.0 hPa 98% 7.2mm
19/06:30am S 13-20 kts 20.4°c 1022.7 hPa 99% 7.2mm
19/06:00am S 14-21 kts 20.1°c 1022.3 hPa 99% 7.2mm
19/05:30am S 11-17 kts 19.9°c 1022.1 hPa 99% 7.2mm
19/05:00am S 9-13 kts 19.8°c 1021.9 hPa 99% 7.0mm
19/04:30am S 11-15 kts 19.7°c 1021.6 hPa 99% 6.6mm
19/04:00am S 12-15 kts 19.9°c 1021.6 hPa 99% 6.6mm
19/03:30am S 14-18 kts 20.2°c 1021.7 hPa 99% 6.6mm
19/03:00am S 12-18 kts 20.1°c 1021.7 hPa 99% 4.0mm
19/02:30am S 13-17 kts 20.1°c 1021.9 hPa 98% 4.0mm
19/02:00am S 11-16 kts 20.1°c 1022.2 hPa 98% 3.2mm
19/01:30am S 12-17 kts 20.2°c 1022.5 hPa 97% 2.6mm
19/01:00am S 12-16 kts 20.2°c 1022.8 hPa 97% 2.6mm
19/12:41am S 16-23 kts 20.8°c 1023.0 hPa 97% 2.4mm
19/12:30am S 9-12 kts 20.4°c 1022.9 hPa 95% 1.6mm
19/12:00am S 11-16 kts 20.4°c 1023.0 hPa 95% 1.4mm
Time Wind Speed Temp Pressure Rel. Hum Rain
18/11:30pm S 12-16 kts 20.4°c 1023.1 hPa 95% 1.2mm
18/11:00pm S 11-19 kts 20.6°c 1023.4 hPa 95% 1.2mm
18/10:30pm SSW 8-12 kts 20.5°c 1023.4 hPa 94% 1.0mm
18/10:00pm S 11-17 kts 20.8°c 1023.4 hPa 94% 1.0mm
18/09:30pm S 18-21 kts 22.1°c 1023.5 hPa 91% 0.0mm
18/09:00pm S 16-19 kts 22.0°c 1023.3 hPa 87% 0.0mm
18/08:30pm S 13-18 kts 22.1°c 1023.2 hPa 86% 0.0mm
18/08:00pm S 10-15 kts 21.7°c 1022.9 hPa 86% 0.0mm
18/07:30pm S 14-17 kts 22.1°c 1022.6 hPa 85% 0.0mm
18/07:00pm S 15-18 kts 22.3°c 1022.5 hPa 86% 0.0mm
18/06:30pm S 11-16 kts 22.3°c 1022.1 hPa 83% 0.0mm
18/06:00pm S 13-16 kts 22.5°c 1021.8 hPa 81% 0.0mm
18/05:30pm SSE 17-21 kts 23.3°c 1021.5 hPa 81% 0.0mm
18/05:00pm SSE 19-22 kts 23.8°c 1021.2 hPa 77% 0.0mm
18/04:30pm SSE 19-25 kts 24.1°c 1020.9 hPa 78% 0.0mm
18/04:00pm SSE 19-22 kts 24.6°c 1020.7 hPa 74% 0.0mm
18/03:30pm SE 19-22 kts 24.9°c 1020.6 hPa 73% 0.0mm
18/03:00pm SE 21-25 kts 25.4°c 1020.7 hPa 76% 0.0mm
18/02:30pm SE 21-25 kts 25.7°c 1020.7 hPa 75% 0.0mm
18/02:00pm SE 20-25 kts 26.1°c 1020.6 hPa 73% 0.0mm
18/01:30pm SE 17-20 kts 26.6°c 1020.8 hPa 69% 0.0mm
18/01:00pm SE 17-20 kts 26.9°c 1021.2 hPa 72% 0.0mm
18/12:30pm SE 16-19 kts 26.8°c 1021.6 hPa 70% 0.0mm
18/12:00pm SSE 13-16 kts 27.4°c 1021.9 hPa 71% 0.0mm
18/11:30am SSE 14-17 kts 27.0°c 1022.4 hPa 70% 0.0mm
18/11:00am SSE 15-17 kts 26.6°c 1022.8 hPa 69% 0.0mm
18/10:30am SSE 15-18 kts 26.6°c 1022.9 hPa 71% 0.0mm
18/10:00am SSE 13-16 kts 25.8°c 1023.1 hPa 71% 0.0mm
18/09:30am S 14-17 kts 24.9°c 1023.0 hPa 73% 0.0mm
18/09:00am S 13-17 kts 24.5°c 1023.0 hPa 74% 0.0mm
18/08:30am S 11-16 kts 23.7°c 1022.9 hPa 77% 0.0mm
18/08:00am S 10-14 kts 22.3°c 1022.7 hPa 79% 0.0mm
18/07:30am SSW 8-12 kts 21.1°c 1022.3 hPa 85% 0.0mm
18/07:00am SSW 6-8 kts 20.0°c 1022.0 hPa 88% 0.0mm
18/06:30am SSW 8-11 kts 19.1°c 1021.7 hPa 92% 0.0mm
18/06:00am SSW 5-7 kts 18.7°c 1021.3 hPa 93% 0.0mm
18/05:30am SSW 8-11 kts 18.8°c 1021.0 hPa 93% 0.0mm
18/05:00am SSW 8-10 kts 18.6°c 1020.9 hPa 94% 0.0mm
18/04:30am SSW 5-7 kts 18.5°c 1020.9 hPa 93% 0.0mm
18/04:00am SW 6-8 kts 18.8°c 1020.8 hPa 94% 0.0mm
18/03:30am SSW 7-9 kts 18.7°c 1020.7 hPa 94% 0.0mm
18/03:00am SSW 6-8 kts 18.8°c 1020.8 hPa 94% 0.0mm
18/02:30am SW 6-9 kts 19.0°c 1020.9 hPa 94% 0.0mm
18/02:00am SW 5-7 kts 19.1°c 1021.2 hPa 93% 0.0mm
18/01:30am SW 6-8 kts 19.2°c 1021.3 hPa 93% 0.0mm
18/01:00am SW 5-8 kts 19.6°c 1021.6 hPa 91% 0.0mm
18/12:30am SSW 7-9 kts 19.7°c 1021.8 hPa 90% 0.0mm
18/12:00am SSW 6-8 kts 19.6°c 1022.0 hPa 90% 0.0mm